[[{"header":{"parameterUnit":"m.s-1","parameterCategory":1,"la1":30.2991,"la2":30.254,"lo1":-89.0895,"lo2":-89.0444,"dy":0.0017,"dx":0.0017,"nx":28,"ny":28,"refTime":"2025-03-18T03:00:00:Z","depth":0,"parameterNumber":2,"parameterNumberName":"U-component_of_WINDS"},"data":[0,0,0,0,0,0,0,0,0,0,0,0,0,0,0,0,0,0,0,0,0,0,0,0,0,0,0,0,0,0,0,0,0,0,0,0,0,0,0,0,0,0,0,0,0,0,0,0,0,0,0,0,0,0,0,0,0,0,3.8975,3.8975,0,3.8955,3.8954,3.8954,3.885,3.8848,3.8846,3.8843,3.8827,3.8829,3.8831,0,0,0,0,0,0,0,0,0,0,0,0,0,3.8931,3.8933,3.8975,3.8975,3.8975,3.8955,3.8954,3.8954,3.8851,3.8848,3.8845,3.8842,3.8827,3.8829,3.8831,0,0,0,0,0,0,0,0,0,0,0,0,0,3.8935,3.8933,3.8975,3.8921,3.8916,3.8955,3.8954,3.8954,3.8852,3.8848,3.8844,3.8841,3.8826,3.8829,3.8831,3.8923,0,0,3.884,3.8841,0,0,0,0,0,0,0,0,3.8935,3.8936,3.8929,3.8925,3.8919,3.8901,3.8933,3.8944,3.8852,3.8876,3.8843,3.8839,3.8855,3.8855,3.886,3.8922,3.8921,3.884,3.8842,3.8843,3.8844,0,0,0,0,0,0,0,3.8935,3.8937,3.8967,3.8929,3.8923,3.8899,3.8896,3.8934,3.8887,3.8874,3.8866,3.8865,3.8852,3.8857,3.8859,3.8921,3.884,3.8843,3.8844,3.8845,3.9059,3.9062,0,0,0,0,0,0,3.8941,3.8937,3.8968,3.8967,3.8918,3.8903,3.8899,3.8911,3.8886,3.8879,3.8868,3.886,3.8854,3.8855,3.8858,3.8963,3.8843,3.8846,3.8847,3.9055,3.9059,3.9064,0,0,0,0,0,0,3.8941,3.8945,3.8969,3.895,3.8951,3.8908,3.8922,3.8912,3.8917,3.8882,3.8873,3.8882,3.8851,3.8854,3.8907,3.8961,3.8847,3.8849,3.905,3.9056,3.9062,3.9175,0,0,0,0,0,0,3.894,3.8945,3.8978,3.8951,3.8952,3.9017,3.8925,3.8915,3.8922,3.8911,3.8892,3.8886,3.8849,3.8904,3.891,3.8963,3.8852,3.9045,3.9053,3.906,3.9167,3.9185,3.92,0,0,0,0,0,3.8939,3.9012,3.898,3.8985,3.8992,3.902,3.9021,3.8975,3.8927,3.896,3.8938,3.8886,3.8954,3.891,3.8916,3.8971,3.9041,3.905,3.9059,3.9159,3.9181,3.92,0,0,0,0,0,0,3.9048,3.9007,3.8972,3.9038,3.9034,3.9003,3.9044,3.9,3.901,3.9,3.8944,3.8941,3.9003,3.8992,3.8943,3.9059,3.8989,3.9,3.9063,3.9084,3.91,3.9101,3.8854,0,0,0,0,0,3.9079,3.9104,3.9068,3.913,3.9129,3.9088,3.9098,3.9063,3.9056,3.9054,3.9035,3.9032,3.9053,3.9068,3.9085,3.9165,3.916,3.9206,3.9223,3.9236,3.9246,3.9289,3.9309,3.9093,3.9093,3.9093,0,0,3.9145,3.9126,3.9145,3.9152,3.9144,3.9172,3.9086,3.912,3.9141,3.906,3.9109,3.9095,3.9088,3.9156,3.9185,3.9149,3.9305,3.9248,3.9259,3.9261,3.93,3.9321,3.9339,3.9099,3.9098,3.9097,0,0,3.9279,3.9267,3.9318,3.9312,3.93,3.9272,3.9285,3.9261,3.9248,3.9296,3.9236,3.9262,3.9298,3.9296,3.93,3.9435,3.9389,3.9443,3.9529,3.9572,3.9589,3.9603,3.9652,3.967,3.9453,3.9453,3.9453,0,3.9363,3.9402,3.935,3.9387,3.9393,3.932,3.9372,3.9369,3.9365,3.9371,3.9331,3.9375,3.9366,3.9432,3.9465,3.947,3.9484,3.9444,3.959,3.9604,3.9617,3.9663,3.9682,3.9459,3.9459,3.9458,3.9457,0,3.9505,3.9534,3.9576,3.9572,3.9583,3.9628,3.9584,3.9601,3.9566,3.9543,3.9594,3.958,3.9593,3.9606,3.9573,3.9669,3.9647,3.9599,3.9528,3.9646,3.9688,3.9705,3.9469,3.9467,3.9465,3.9463,0,0,3.9707,3.9674,3.9691,3.9689,3.9672,3.9693,3.9736,3.9747,3.9763,3.9764,3.9799,3.9832,3.9788,3.9792,3.9758,3.9796,3.9905,3.9743,3.9742,3.9774,4.001,4.0046,4.0067,3.9874,3.9877,3.988,4.0011,0,3.9835,3.9904,3.9859,3.9936,3.9962,3.9894,3.9931,3.9926,3.9906,3.9926,3.9905,3.9929,3.9869,3.9871,3.9905,3.9884,3.9951,3.9874,3.9908,3.9909,3.9911,4.0089,4.0127,4.0251,4.0027,4.003,4.0032,0,3.9994,4.0,4.0079,4.0057,4.0067,4.01,4.0108,4.0128,4.0122,4.0105,4.011,4.0067,4.0109,4.004,4.0098,4.0046,4.0058,4.005,4.0054,4.0055,3.9977,4.0095,4.0289,4.0308,4.0057,4.0055,4.0053,0,4.0133,4.0161,4.0212,4.0212,4.0189,4.0214,4.0206,4.0196,4.0206,4.0213,4.022,4.0233,4.024,4.0252,4.0215,4.0167,4.0278,4.0205,4.0266,4.0268,4.0292,4.0291,4.0491,4.03,4.03,4.03,4.0299,0,4.0281,4.0332,4.0274,4.0306,4.0361,4.0311,4.0368,4.0353,4.0345,4.0373,4.0316,4.0345,4.0293,4.0317,4.0288,4.0341,4.0345,4.0334,4.0325,4.0339,4.034,4.0345,4.0335,4.0305,4.0304,4.0303,4.0302,0,4.0446,4.0409,4.046,4.0433,4.0428,4.0471,4.0449,4.0478,4.0454,4.0491,4.0497,4.0461,4.0486,4.0449,4.0471,4.0452,4.0525,4.0504,4.0527,4.052,4.0584,4.0578,4.0794,4.082,4.0613,4.0615,4.0616,0,4.0542,4.058,4.0558,4.0572,4.0566,4.059,4.06,4.0553,4.0566,4.0562,4.0592,4.0612,4.0626,4.067,4.0646,4.0663,4.0642,4.0716,4.0644,4.0657,4.0643,4.0641,4.0645,4.0731,4.0734,4.0736,4.0737,0,4.0718,4.0698,4.0714,4.0724,4.0737,4.0743,4.0745,4.076,4.0711,4.0729,4.0753,4.0764,4.0785,4.0807,4.0818,4.0811,4.0767,4.076,4.0775,4.0789,4.0801,4.0796,4.0567,4.0755,4.0754,4.0752,4.0751,4.0751,4.0852,4.0882,4.0871,4.0891,4.0887,4.0891,4.0917,4.0896,4.0915,4.0928,4.09,4.0932,4.0926,4.0935,4.0934,4.0959,4.0927,4.0949,4.0954,4.096,4.097,4.0797,4.0961,4.0961,4.096,4.096,4.0959,0,4.1024,4.1014,4.1033,4.1037,4.1053,4.1009,4.1009,4.1026,4.1054,4.1052,4.1066,4.1095,4.1116,4.1094,4.1111,4.1136,4.1116,4.1142,4.114,4.1139,4.0998,4.0983,4.1158,4.1158,4.1157,4.1157,4.1157,4.1157,4.1116,4.1166,4.1145,4.1193,4.1183,4.1212,4.1216,4.122,4.1217,4.1252,4.1268,4.1253,4.1244,4.126,4.1277,4.1271,4.128,4.1313,4.13,4.1168,4.1149,4.113,4.1116,4.1315,4.1316,4.1438,4.1439,4.144]},{"header":{"parameterUnit":"m.s-1","parameterCategory":1,"la1":30.2991,"la2":30.254,"lo1":-89.0895,"lo2":-89.0444,"dy":0.0017,"dx":0.0017,"nx":28,"ny":28,"refTime":"2025-03-18T03:00:00:Z","depth":0,"parameterNumber":3,"parameterNumberName":"V-component_of_WINDS"},"data":[0,0,0,0,0,0,0,0,0,0,0,0,0,0,0,0,0,0,0,0,0,0,0,0,0,0,0,0,0,0,0,0,0,0,0,0,0,0,0,0,0,0,0,0,0,0,0,0,0,0,0,0,0,0,0,0,0,0,5.1307,5.1309,0,5.1556,5.1559,5.1562,5.1595,5.1593,5.159,5.1588,5.1841,5.1849,5.1858,0,0,0,0,0,0,0,0,0,0,0,0,0,5.0856,5.0864,5.1306,5.131,5.1313,5.1555,5.1559,5.1562,5.1595,5.1592,5.159,5.1587,5.1838,5.1848,5.1859,0,0,0,0,0,0,0,0,0,0,0,0,0,5.1073,5.0867,5.1306,5.1359,5.1366,5.1555,5.1559,5.1563,5.1596,5.1592,5.1589,5.1586,5.1834,5.1847,5.186,5.2013,0,0,5.1901,5.1907,0,0,0,0,0,0,0,0,5.1061,5.109,5.1348,5.1355,5.1364,5.1541,5.1493,5.1714,5.1597,5.1508,5.1588,5.1584,5.1743,5.1764,5.1819,5.2025,5.2036,5.1902,5.191,5.1916,5.192,0,0,0,0,0,0,0,5.1046,5.1079,5.1405,5.1351,5.1361,5.1369,5.1396,5.1535,5.1643,5.1516,5.1519,5.1548,5.1747,5.1806,5.1825,5.204,5.1902,5.1914,5.1922,5.1927,5.2385,5.2389,0,0,0,0,0,0,5.1022,5.1066,5.1397,5.1413,5.1201,5.138,5.141,5.1487,5.1641,5.1661,5.1551,5.1549,5.1784,5.1809,5.1834,5.2024,5.1916,5.1929,5.1936,5.2381,5.2386,5.239,0,0,0,0,0,0,5.1012,5.1051,5.1387,5.1241,5.1284,5.1391,5.1478,5.1494,5.1553,5.1668,5.1687,5.1591,5.1783,5.1815,5.1969,5.2033,5.1935,5.1947,5.2376,5.2382,5.2388,5.2404,0,0,0,0,0,0,5.0999,5.1047,5.1107,5.1242,5.1292,5.1519,5.1482,5.1502,5.1576,5.1576,5.171,5.1729,5.1782,5.1949,5.1982,5.2049,5.1957,5.237,5.2379,5.2386,5.2398,5.241,5.242,0,0,0,0,0,5.0983,5.1101,5.111,5.115,5.1369,5.1523,5.1551,5.1611,5.1581,5.1642,5.1716,5.1725,5.202,5.1964,5.2002,5.2074,5.2367,5.2376,5.2385,5.2393,5.2408,5.242,0,0,0,0,0,0,5.097,5.112,5.1131,5.1297,5.1397,5.1528,5.1607,5.1624,5.1733,5.1728,5.1797,5.1827,5.1977,5.2041,5.1976,5.2231,5.2191,5.2208,5.2184,5.2198,5.2209,5.2191,5.1968,0,0,0,0,0,5.0987,5.11,5.1224,5.1358,5.1408,5.1498,5.1567,5.1605,5.1711,5.1753,5.1838,5.194,5.2055,5.213,5.2243,5.2407,5.2437,5.2476,5.2486,5.2495,5.2509,5.2601,5.262,5.2421,5.242,5.242,0,0,5.1022,5.1118,5.1185,5.1358,5.144,5.1555,5.1534,5.1656,5.1742,5.1771,5.1922,5.1988,5.2106,5.2266,5.234,5.2323,5.2571,5.2507,5.2512,5.2523,5.2612,5.2631,5.2648,5.2427,5.2426,5.2425,0,0,5.1145,5.1229,5.1351,5.1433,5.1558,5.1617,5.1646,5.1775,5.182,5.1973,5.1998,5.21,5.2298,5.2381,5.2449,5.2604,5.2617,5.2638,5.2696,5.2784,5.28,5.2814,5.287,5.2889,5.2652,5.2652,5.2652,0,5.1173,5.1349,5.141,5.1533,5.1608,5.164,5.1764,5.184,5.1995,5.2046,5.2025,5.2274,5.2355,5.2535,5.2573,5.2627,5.2662,5.2624,5.2793,5.2808,5.2822,5.2876,5.2896,5.2654,5.2654,5.2654,5.2653,0,5.1377,5.1498,5.1581,5.1731,5.1816,5.1937,5.2017,5.2095,5.2124,5.2185,5.234,5.2439,5.2573,5.2618,5.2648,5.2802,5.2788,5.2779,5.274,5.2842,5.2894,5.2915,5.2657,5.2656,5.2656,5.2655,0,0,5.15,5.1683,5.1712,5.1781,5.1921,5.2015,5.2138,5.227,5.2335,5.244,5.2545,5.2712,5.2704,5.2782,5.2821,5.2898,5.3015,5.288,5.2884,5.2902,5.3192,5.3198,5.3221,5.3024,5.3028,5.3031,5.3182,0,5.1641,5.1862,5.1921,5.2109,5.2222,5.2254,5.2361,5.2457,5.2518,5.2621,5.2687,5.2805,5.2786,5.2833,5.2911,5.2984,5.3074,5.2974,5.3122,5.3126,5.3092,5.3248,5.3256,5.3393,5.3203,5.3206,5.3209,0,5.1834,5.1945,5.2144,5.227,5.2319,5.2414,5.254,5.2639,5.2749,5.2787,5.2873,5.2905,5.3034,5.2987,5.3165,5.3096,5.3159,5.3204,5.3211,5.3227,5.3174,5.327,5.3439,5.3459,5.3241,5.3238,5.3236,0,5.1905,5.2103,5.2248,5.2306,5.2456,5.2522,5.2587,5.2694,5.277,5.2879,5.2928,5.305,5.3117,5.321,5.3274,5.3234,5.3446,5.3405,5.3482,5.348,5.3526,5.3522,5.3708,5.3565,5.3565,5.3564,5.3564,0,5.2056,5.2176,5.2282,5.2372,5.2508,5.2574,5.2706,5.2772,5.2867,5.2969,5.3003,5.3098,5.3176,5.3281,5.3331,5.3471,5.35,5.3535,5.3547,5.3533,5.3528,5.3576,5.3568,5.357,5.3569,5.3567,5.3567,0,5.2158,5.2234,5.2394,5.2523,5.2559,5.2653,5.2763,5.2851,5.2912,5.304,5.3074,5.317,5.3296,5.3368,5.3526,5.356,5.3715,5.3722,5.3678,5.3684,5.3756,5.3749,5.398,5.4013,5.3847,5.3849,5.385,0,5.225,5.2344,5.2483,5.2555,5.2622,5.2736,5.2813,5.2881,5.296,5.3093,5.3164,5.3292,5.3398,5.3597,5.368,5.38,5.3811,5.3884,5.383,5.3812,5.3813,5.3807,5.3817,5.3893,5.3895,5.3896,5.3897,0,5.2405,5.2438,5.2549,5.2674,5.2765,5.2866,5.2966,5.3022,5.3107,5.3194,5.3323,5.3405,5.3567,5.3693,5.3821,5.3887,5.3906,5.3913,5.3937,5.3924,5.3895,5.3912,5.3704,5.3908,5.3907,5.3906,5.3905,5.3905,5.2506,5.2591,5.2703,5.2825,5.2908,5.3001,5.3089,5.3162,5.3272,5.3409,5.3442,5.3578,5.3685,5.3859,5.3928,5.4035,5.4022,5.4057,5.4066,5.4074,5.4076,5.3877,5.4058,5.4058,5.4058,5.4058,5.4057,0,5.2663,5.2737,5.2849,5.2988,5.3085,5.3095,5.3206,5.3286,5.3406,5.3505,5.3608,5.3757,5.3879,5.3972,5.4097,5.4165,5.4177,5.4195,5.4192,5.4207,5.408,5.4047,5.4184,5.4184,5.4184,5.4184,5.4184,5.4184,5.2756,5.2901,5.2947,5.3133,5.3206,5.3341,5.3403,5.3489,5.3568,5.3733,5.3836,5.3895,5.3992,5.4124,5.4237,5.4261,5.4306,5.4323,5.4348,5.4229,5.4215,5.4202,5.4172,5.4332,5.4332,5.4466,5.4467,5.4468]}]]